Location: Kunchanapalle
(16.4623°N, 80.6176°E)
Time: 17:26:52
(UTC+00:00)

ATLAS 5 CENTAUR R/B - Pass Details

Date: 13 August 2020
Orbit: 533 x 1125 km, 63.4° (Epoch: 17 September)

Event Time Altitude Azimuth Distance (km) Brightness Sun altitude
Rises 15:55:51 0° 315° (NW) 3,676 6.4 -38.6°
Reaches altitude 10° 15:58:43 10° 304° (WNW) 2,806 5.6 -39.2°
Enters shadow 16:03:47 27° 255° (WSW) 1,925 4.2 -40.2°
